Probability
14 15 16 15 14 14 14 15 13 9 7 8 11 12 14 13 8 5 4 2 0 0 0 0 0 0 0 0 0 0 0 0 0 0 0 0 0 0
16 14 14 16 17 17 16 17 17 13 9 9 11 11 11 9 6 5 4 3 1 0 0 0 0 0 0 0 0 0 0 0 0 0 0 0 0 0
13 12 11 15 18 18 18 18 17 15 12 10 10 10 9 7 6 6 5 4 2 1 0 0 0 0 0 0 0 0 0 0 0 0 0 0 0 0
12 11 10 13 15 16 17 16 13 12 11 10 10 11 9 7 6 6 6 4 3 1 0 0 0 0 0 0 0 0 0 0 0 0 0 0 0 0
14 13 11 11 12 13 15 14 11 9 8 9 10 10 8 6 7 7 6 6 4 2 1 0 0 0 0 0 0 0 0 0 0 0 0 0 0 0
14 13 10 9 9 10 12 13 10 8 7 8 7 6 6 6 7 7 8 6 5 3 1 0 0 0 0 0 0 0 0 0 0 0 0 0 0 0
10 9 7 6 6 6 7 8 8 6 5 5 4 4 5 6 6 7 7 5 4 3 1 0 0 0 0 0 0 0 0 0 0 0 0 0 0 0
5 5 4 3 3 2 2 2 3 3 2 2 2 4 5 6 6 5 4 3 2 3 1 0 0 0 0 0 0 0 0 0 0 0 0 0 0 0
2 3 3 2 1 0 0 0 0 0 0 0 1 2 3 5 6 5 3 2 1 1 0 0 0 0 0 0 0 0 0 0 0 0 0 0 0 0
1 2 3 2 1 0 0 0 1 1 0 0 0 1 2 4 5 4 3 2 0 0 0 0 0 0 0 0 0 0 0 0 0 0 0 0 0 0
1 2 3 2 1 0 0 1 2 2 1 0 0 0 0 1 2 3 3 1 0 0 0 0 0 0 0 0 0 0 0 0 0 0 0 0 0 0
2 3 2 1 0 0 1 3 4 4 2 1 1 0 0 0 1 2 2 1 0 0 0 0 0 0 0 0 0 0 0 0 0 0 0 0 0 0
5 5 3 1 0 0 1 3 4 3 3 2 1 0 0 0 0 1 1 0 0 0 0 0 0 0 0 0 0 0 0 0 0 0 0 0 0 0
5 5 3 1 0 0 0 1 1 1 2 2 1 0 0 0 0 0 0 0 0 0 0 0 0 0 0 0 0 0 0 0 0 0 0 0 0 0
2 2 1 0 0 0 0 0 0 0 1 1 0 0 0 0 0 0 0 0 0 0 0 0 0 0 0 0 0 0 0 0 0 0 0 0 0 0
0 0 0 0 0 0 0 0 0 0 0 0 0 0 0 0 0 0 0 0 0 0 0 0 0 0 0 0 0 0 0 0 0 0 0 0 0 0
0 0 0 0 0 0 0 0 0 0 0 0 0 0 0 0 0 0 0 0 0 0 0 0 0 0 0 0 0 0 0 0 0 0 0 0 0 0
0 0 0 0 0 0 0 0 0 0 0 0 0 0 0 0 0 0 0 0 0 0 0 0 0 0 0 0 0 0 0 0 0 0 0 0 0 0
0 0 0 0 0 0 0 0 0 0 0 0 0 0 0 0 0 0 0 0 0 0 0 0 0 0 0 0 0 0 0 0 0 0 0 0 0 0
0 0 0 0 0 0 0 0 0 0 0 0 0 0 0 0 0 0 0 0 0 0 0 0 0 0 0 0 0 0 0 0 0 0 0 0 0 0
0 0 0 0 0 0 0 0 0 0 0 0 0 0 0 0 0 0 0 0 0 0 0 0 0 0 0 0 0 0 0 0 0 0 0 0 0 0
0 0 0 0 0 0 0 0 0 0 0 0 0 0 0 0 0 0 0 0 0 0 0 0 0 0 0 0 0 0 0 0 0 0 0 0 0 0
0 0 0 0 0 0 0 0 0 0 0 0 0 0 0 0 0 0 0 0 0 0 0 0 0 0 0 0 0 0 0 0 0 0 0 0 0 0
Wind_Speed
7 8 7 5 5 5 5 5 5 5 4 4 3 2 2 2 4 3 4 7 8 7 7 6 6 6 6 6 6 6 5 5 4 4 3 3 3 3
5 5 6 5 5 5 5 5 5 5 4 2 2 2 2 3 4 4 6 10 8 8 7 7 7 7 6 6 6 6 5 5 4 3 3 3 3 4
5 6 6 5 4 4 4 4 4 4 4 2 1 2 3 3 4 4 4 4 6 8 7 7 6 6 6 6 6 5 5 5 4 4 4 4 5 5
5 5 5 4 5 5 4 4 4 3 4 4 2 2 2 3 4 3 3 3 4 8 9 8 8 7 7 6 6 6 5 5 5 4 4 4 5 5
4 4 5 5 5 4 4 4 3 3 3 3 3 2 2 3 3 3 3 2 3 7 9 9 8 8 7 7 6 6 5 5 4 4 4 4 5 5
3 3 4 4 4 4 4 3 3 3 3 3 3 3 3 3 3 3 3 2 2 4 5 6 8 8 8 7 7 6 5 4 4 3 4 4 4 5
2 2 2 1 1 1 2 3 3 3 3 3 3 3 3 3 3 3 3 3 3 2 3 4 4 4 5 6 7 7 6 5 5 4 4 4 3 4
2 2 1 2 4 6 6 6 4 2 3 3 3 3 3 3 2 3 3 3 2 2 2 3 3 3 3 4 8 7 6 5 5 4 3 4 4 4
2 2 2 2 4 5 8 8 8 8 5 2 3 3 3 3 3 4 3 2 3 3 2 3 2 3 3 6 8 6 5 5 4 3 3 4 4 5
3 3 3 3 4 6 7 7 7 7 5 4 4 4 4 3 3 4 5 6 5 3 1 2 2 2 2 3 8 5 3 2 2 2 3 4 5 6
4 4 4 5 5 7 8 9 9 8 11 14 13 12 12 9 5 5 5 5 4 4 1 1 2 1 1 2 5 6 4 3 2 2 3 4 6 8
5 5 7 6 6 5 8 9 9 8 8 10 10 9 9 9 7 4 3 3 3 4 3 0 1 0 1 1 1 1 2 4 5 5 4 4 5 7
5 4 5 9 8 6 6 7 8 8 8 8 8 7 7 6 6 6 5 3 3 4 3 0 1 1 1 0 1 1 2 3 2 2 4 5 5 7
5 5 7 9 9 8 7 8 8 6 6 6 6 6 6 6 6 6 7 7 6 6 4 2 1 2 2 2 1 1 2 3 3 4 4 3 6 8
6 9 9 9 10 9 10 8 6 5 6 6 6 6 5 5 5 5 6 5 5 5 5 3 2 1 2 2 2 2 3 2 3 4 5 5 5 5
9 11 11 8 7 9 8 6 4 5 4 5 5 5 5 4 4 3 3 3 3 5 4 2 2 2 2 2 3 3 3 3 4 5 6 6 5 5
8 7 6 6 6 6 6 5 5 5 4 4 5 4 4 4 4 3 2 1 2 3 3 2 1 0 1 4 3 4 4 4 4 5 6 7 5 5
6 6 6 5 5 6 5 5 5 4 4 4 4 4 3 3 3 3 2 1 2 2 2 2 1 1 2 2 2 5 5 5 5 5 7 7 6 5
5 6 5 5 5 5 5 5 5 4 3 3 3 3 3 3 3 2 1 1 1 2 2 2 2 3 4 2 2 1 5 6 6 6 6 7 7 7
4 5 5 5 5 4 4 4 4 4 3 3 3 3 2 2 2 2 1 1 1 1 1 1 2 4 5 6 5 2 2 5 6 7 7 7 7 6
4 4 4 4 4 4 4 4 4 3 3 2 3 2 2 2 2 1 1 1 2 1 1 2 3 3 5 5 5 3 2 2 4 6 8 8 8 8
4 4 4 4 4 4 4 3 3 4 4 3 3 2 2 2 2 1 1 1 1 1 2 1 0 3 4 5 6 5 5 5 5 10 9 7 8 9
4 4 4 4 4 4 4 4 4 3 3 3 3 2 2 2 1 1 1 1 1 1 2 2 2 3 4 5 6 6 7 8 6 5 4 8 13 15
Wind_Direction
236 234 240 242 244 249 249 243 244 242 226 199 202 168 174 124 124 147 128 116 123 124 125 126 126 125 122 120 115 108 99 94 91 82 66 47 33 17
241 245 241 241 239 237 240 244 246 247 250 218 186 152 133 134 125 129 116 112 108 115 116 120 122 122 118 116 115 110 101 91 85 77 65 48 30 12
235 233 236 247 246 241 233 234 239 237 234 226 187 126 134 144 132 135 134 133 116 114 118 116 114 113 111 105 99 93 90 82 72 66 55 39 24 11
232 234 238 236 235 245 238 236 237 238 226 213 190 166 158 148 138 146 143 135 123 113 114 111 108 106 105 103 99 92 86 81 74 62 49 35 18 7
228 229 236 235 230 231 229 233 231 226 215 202 183 153 153 142 133 131 119 116 123 120 113 109 105 102 99 97 96 93 85 76 68 60 50 37 24 16
228 230 236 232 224 220 215 220 225 219 194 185 176 167 156 159 158 155 145 138 117 112 97 102 106 108 107 106 104 97 88 79 68 58 51 39 28 16
206 216 213 170 134 168 191 192 197 197 190 181 177 171 169 165 177 181 159 140 109 115 126 121 120 108 107 115 103 90 83 74 65 58 47 33 18 2
179 188 171 150 118 103 89 79 81 146 175 176 170 165 165 174 168 171 155 153 144 122 128 97 84 81 74 75 80 78 70 66 59 49 32 10 355 343
142 154 150 122 133 130 111 98 82 73 77 126 151 160 156 161 169 161 149 144 106 118 132 111 110 99 87 87 97 87 74 61 44 21 1 343 333 324
94 112 120 110 116 125 121 109 94 78 75 90 103 97 101 117 142 135 128 119 114 103 112 119 105 92 95 108 121 117 104 77 35 357 340 333 323 308
88 85 102 111 109 128 125 116 105 93 74 75 75 80 78 74 77 116 126 129 120 113 88 92 107 99 140 138 137 155 171 182 210 261 289 303 308 297
104 96 84 96 107 119 128 124 117 110 108 102 94 94 89 84 70 69 104 124 124 115 89 330 112 266 195 106 14 182 202 190 207 223 235 257 295 304
120 112 98 101 102 95 108 113 120 125 119 112 106 98 91 83 76 65 43 36 63 82 91 322 23 338 310 305 319 337 333 332 303 260 223 224 257 290
117 112 106 108 103 97 98 104 120 130 117 110 102 96 91 85 77 70 62 57 56 70 63 25 27 343 313 322 341 337 320 311 311 319 321 252 240 238
95 97 109 118 118 103 103 114 130 120 110 105 99 93 88 89 96 100 97 92 90 81 74 33 7 3 318 329 331 319 317 321 327 328 324 319 318 307
111 114 116 108 104 106 119 117 99 86 95 102 104 104 108 111 106 101 109 118 114 108 100 81 33 338 321 338 322 333 334 329 331 338 331 315 311 318
133 132 131 131 124 120 115 108 108 113 110 108 110 113 113 106 100 96 88 98 87 91 106 114 126 198 327 319 331 342 332 331 341 347 314 309 321 327
143 132 133 135 131 127 124 119 113 108 106 106 106 109 113 113 109 101 88 74 74 68 56 40 353 263 221 134 13 336 332 335 334 325 309 317 324 332
142 130 131 129 126 123 119 116 113 110 106 113 116 119 117 116 113 108 101 92 75 60 47 20 352 335 324 354 111 286 329 327 323 322 325 323 321 325
131 127 129 128 125 119 116 114 115 120 122 123 125 126 125 128 129 133 117 39 42 32 36 23 8 350 340 336 328 312 230 321 329 325 324 320 315 305
129 123 121 120 118 116 114 119 124 126 125 133 133 138 150 157 147 152 130 126 280 296 320 34 34 301 288 294 299 327 350 206 265 301 316 318 322 321
124 121 116 114 117 120 126 132 136 139 148 160 151 161 162 161 163 192 203 209 252 309 326 6 292 278 293 310 315 324 326 318 248 228 242 271 314 323
125 126 128 133 135 140 140 147 153 151 155 161 162 172 175 178 199 213 225 256 276 305 300 307 307 301 311 313 315 321 325 320 317 309 277 218 226 241